Location: Brachbach
(49.1847°N, 9.7240°E)
Time: 23:06:44
(UTC+00:00)

Meteor 2-5 Rocket - Pass Details

Date: 17 August 2024
Orbit: 833 x 910 km, 81.2° (Epoch: 07 September)

Event Time Altitude Azimuth Distance (km) Brightness Sun altitude
Rises 03:25:36 0° 331° (NNW) 3,488 6.9 -8.2°
Reaches altitude 10° 03:29:38 10° 304° (NW) 2,561 6.0 -7.7°
Maximum altitude 03:31:52 12° 281° (W) 2,396 5.6 -7.4°
Drops below altitude 10° 03:34:08 10° 258° (WSW) 2,571 5.6 -7.0°
Enters shadow 03:35:11 - 249° (WSW) 2,754 5.7 -6.9°
